Location: Ferchesar
(52.6477°N, 12.4298°E)
Time: 23:46:50
(UTC+01:00)

Transit 2A Rocket - Pass Details

Date: 13 December 2021
Orbit: 584 x 918 km, 66.7° (Epoch: 21 January)

Event Time Altitude Azimuth Distance (km) Brightness Sun altitude
Rises 06:05:33 0° 214° (SSW) 3,386 8.2 -18.1°
Reaches altitude 10° 06:07:56 10° 213° (SSW) 2,494 7.5 -17.7°
Maximum altitude 06:13:47 82° 128° (SE) 913 5.4 -16.9°
Drops below altitude 10° 06:19:57 10° 41° (NE) 2,620 8.1 -16.0°
Sets 06:22:30 0° 41° (NE) 3,567 8.8 -15.6°
